Regional Weather Roundup
Issued by NWS

Home | Current Version | Previous Version | Text Only | Print | Product List | Glossary On
Versions: 1 2 3 4 5 6 7 8 9 10 11 12 13 14 15 16 17 18 19 20 21 22 23 24 25 26 27 28 29 30 31 32 33 34 35 36 37 38 39 40 41 42 43 44 45 46 47 48 49 50
000
ASUS43 KLSX 281807
RWRMO

WEATHER SUMMARY FOR MISSOURI
NATIONAL WEATHER SERVICE SPRINGFIELD MO
1200 PM CST FRI NOV 28 2014

NOTE: "FAIR" INDICATES FEW OR NO CLOUDS BELOW 12,000 FEET WITH NO
       SIGNIFICANT WEATHER AND/OR OBSTRUCTIONS TO VISIBILITY.
       CURRENT SKY AND/OR WEATHER CONDITIONS ARE NOT AVAILABLE FOR
       CHILLICOTHE AND FARMINGTON.

MOZ001>031-035>038-043-044-053-054-281900-
...NORTHERN AND WESTERN MISSOURI...

CITY           SKY/WX    TMP DP  RH WIND       PRES   REMARKS
KANSAS CTY INT PTSUNNY   50  30  46 SW17      29.89F
6HR MIN TEMP:  35; 6HR MAX TEMP:  51;

KANSAS C DTWN  SUNNY     55  30  38 SW14      29.89F
6HR MIN TEMP:  36; 6HR MAX TEMP:  55;

LEE`S SUMMIT   SUNNY     53  31  42 SW20G26   29.91F
6HR MIN TEMP:  34; 6HR MAX TEMP:  53;

ST JOSEPH      SUNNY     50  30  46 S14       29.87F
6HR MIN TEMP:  28; 6HR MAX TEMP:  51;

CHILLICOTHE      N/A     46  31  55 S9        29.92F
6HR MIN TEMP:  30; 6HR MAX TEMP:  47;

KIRKSVILLE     SUNNY     45  31  58 SW12      29.91F
6HR MIN TEMP:  24; 6HR MAX TEMP:  45;


$$
MOZ066>068-077>081-088>096-101>105-281900-
...SOUTHWEST MISSOURI...

CITY           SKY/WX    TMP DP  RH WIND       PRES   REMARKS
SPRINGFIELD    SUNNY     56  32  40 S18       30.01F
6HR MIN TEMP:  33; 6HR MAX TEMP:  56;

JOPLIN         SUNNY     59  32  36 S25G36    29.99F
6HR MIN TEMP:  41; 6HR MAX TEMP:  59;


$$
MOZ032>034-039>042-045>050-055>058-069>072-281900-
...CENTRAL MISSOURI...

CITY           SKY/WX    TMP DP  RH WIND       PRES   REMARKS
COLUMBIA       SUNNY     52  31  44 SW15      29.97F
6HR MIN TEMP:  29; 6HR MAX TEMP:  52;

JEFFERSON CITY SUNNY     52  30  43 SW16G22   29.98F
6HR MIN TEMP:  29; 6HR MAX TEMP:  52;

ROLLA          SUNNY     50  31  48 S22G28    30.00F
6HR MIN TEMP:  31; 6HR MAX TEMP:  50;

SEDALIA        SUNNY     54  31  41 SW21G29   29.94F
6HR MIN TEMP:  33; 6HR MAX TEMP:  54;

WHITEMAN AFB   SUNNY     54  31  42 SW21G26   29.92F
WARRENSBURG    SUNNY     54  32  43 SW16G24   29.93F
OSAGE BEACH    SUNNY     57  32  38 SW15G21   29.98F

$$
MOZ051-052-059>065-281900-
...EAST CENTRAL MISSOURI...

CITY           SKY/WX    TMP DP  RH WIND       PRES   REMARKS
ST LOUIS INTL  MOSUNNY   46  32  58 S16G22    30.07F
6HR MIN TEMP:  27; 6HR MAX TEMP:  46;

SPIRIT OF STL  MOSUNNY   49  31  49 S8G17     30.04F
6HR MIN TEMP:  26; 6HR MAX TEMP:  49;

ST CHARLES     SUNNY     44  34  67 S14       30.05F
6HR MIN TEMP:  24; 6HR MAX TEMP:  44;


$$
MOZ072>076-082>087-097>100-106>115-281900-
...SOUTH CENTRAL AND SOUTHEAST MISSOURI...

CITY           SKY/WX    TMP DP  RH WIND       PRES   REMARKS
CAPE GIRARDEAU SUNNY     43  33  68 S17G25    30.23F
6HR MIN TEMP:  29; 6HR MAX TEMP:  43;

FARMINGTON     SUNNY     43  32  65 SE20G26   30.12F
6HR MIN TEMP:  27; 6HR MAX TEMP:  43;

POPLAR BLUFF   SUNNY     46  31  55 S17G24    30.22F
6HR MIN TEMP:  26; 6HR MAX TEMP:  46;

WEST PLAINS    SUNNY     48  30  49 S14       30.12F
6HR MIN TEMP:  28; 6HR MAX TEMP:  49;


$$



USA.gov is the U.S. government's official web portal to all federal, state and local government web resources and services.